Wind_Speed
39 40 39 40 40 40 41 42 42 42 42 42 43 44 45 46 47 48 49 50 50 51 52 53 53 54 55 56 57 59 60 60 61 61 62 63 64 66
40 40 40 41 41 41 42 42 43 43 43 43 44 45 46 47 49 50 51 52 53 54 55 55 55 56 57 58 59 60 61 61 61 62 63 65 66 67
40 41 41 41 42 42 42 43 43 44 44 44 45 46 47 49 51 52 53 54 55 56 56 57 57 58 59 60 61 62 62 62 63 64 65 66 66 65
41 41 41 42 42 42 42 43 44 44 45 45 46 48 49 51 52 53 54 55 56 57 58 58 59 60 61 62 63 62 63 63 64 66 66 66 65 63
41 41 42 42 42 42 43 43 44 45 46 47 48 49 51 53 54 55 55 56 57 58 59 60 61 62 63 64 64 63 64 65 66 67 66 65 64 61
41 41 42 42 42 43 43 44 45 45 47 48 50 51 52 53 55 56 56 57 58 60 61 62 63 63 63 64 64 64 65 65 66 65 64 63 62 60
41 41 42 42 42 43 43 44 45 46 47 49 50 51 53 55 56 56 57 58 59 60 61 62 62 62 63 64 64 63 64 64 64 63 62 61 59 57
41 41 41 41 42 42 43 44 45 46 48 49 51 52 54 55 56 57 57 58 59 60 61 61 62 62 62 63 63 62 62 62 61 61 60 57 56 53
40 40 41 41 42 42 43 44 46 47 48 49 51 53 55 55 56 57 58 59 60 61 62 61 62 62 62 62 61 61 61 60 60 59 56 54 51 47
40 40 40 41 42 42 43 45 46 47 48 50 52 54 55 55 56 57 58 59 60 62 62 61 61 60 60 60 60 60 59 58 57 55 52 49 46 43
39 40 41 41 42 43 44 45 46 47 48 50 52 54 54 55 56 58 59 60 60 60 61 60 59 58 58 59 58 58 57 57 54 51 48 46 43 39
39 40 40 41 42 43 44 45 45 47 48 50 52 53 54 55 56 58 59 60 60 59 59 59 58 58 57 57 57 56 55 53 50 47 44 42 38 34
39 39 40 41 42 43 43 44 45 47 49 51 52 53 54 55 56 57 58 59 59 59 59 58 57 57 57 56 54 53 51 48 47 44 41 37 34 30
39 39 40 41 42 42 43 44 46 47 49 51 53 53 54 55 56 58 58 59 58 58 57 56 55 55 54 53 51 49 46 45 43 39 36 34 30 27
39 39 40 40 41 42 43 44 46 48 49 51 52 54 55 56 57 58 58 57 56 55 54 53 53 52 52 49 47 45 43 41 38 35 33 30 26 23
38 39 39 40 41 42 43 45 46 48 50 51 52 54 55 57 57 57 56 54 54 53 52 51 50 49 48 46 44 42 40 38 35 32 29 26 24 22
38 39 39 40 41 43 44 45 47 49 50 52 53 55 56 57 56 55 53 52 51 50 50 49 48 47 45 43 41 39 36 34 32 29 26 25 23 21
37 38 39 40 42 43 44 45 47 49 51 52 54 55 55 55 54 52 50 50 49 48 48 47 46 45 42 39 37 35 33 32 30 27 25 23 22 19
38 38 39 41 42 43 44 46 49 50 52 53 54 54 53 52 51 49 48 47 47 47 46 45 43 41 38 36 34 33 31 29 27 25 23 21 19 16
38 39 40 41 42 44 45 48 50 51 52 52 52 51 50 49 48 47 46 45 45 45 43 42 40 37 35 33 32 30 29 26 25 23 21 19 16 14
38 39 40 42 43 45 47 48 50 50 50 50 50 49 48 47 45 45 44 43 43 42 40 38 37 34 32 31 29 27 26 24 23 21 19 16 14 12
38 39 40 42 43 45 47 48 49 49 49 49 48 47 46 45 43 42 41 41 40 39 38 36 35 32 30 29 27 25 24 22 21 18 16 13 11 10
38 39 41 42 44 45 46 47 47 47 48 47 45 44 44 42 41 39 39 38 38 37 36 34 32 30 28 26 25 23 22 19 17 15 13 11 10 10
Wind_Direction
288 289 290 292 294 296 297 299 301 301 302 303 303 303 305 306 307 307 308 308 307 307 307 307 306 305 304 303 303 303 302 302 301 301 300 299 298 297
287 288 289 291 293 295 296 298 300 301 301 302 303 303 304 306 306 307 308 308 307 307 307 307 307 306 305 304 304 304 304 303 302 302 301 301 300 299
286 287 289 290 292 294 295 297 299 300 301 302 303 303 304 305 306 307 308 308 308 308 308 307 307 307 306 306 306 305 304 303 303 303 303 302 301 300
285 287 288 290 292 293 294 296 298 299 301 302 303 303 305 306 307 307 308 308 308 308 308 308 308 308 307 307 306 305 304 304 304 304 303 303 302 300
285 287 288 290 291 293 294 296 297 298 300 302 303 303 305 306 307 308 308 309 309 310 309 309 308 308 308 307 307 306 305 305 305 305 304 304 303 301
284 286 288 289 291 292 293 294 296 297 299 301 303 304 305 306 307 308 308 309 310 310 310 310 309 309 309 309 308 307 306 306 306 306 306 305 303 301
283 285 287 288 290 291 292 294 296 297 299 301 303 304 305 306 307 308 308 309 310 311 311 311 310 310 310 310 310 309 309 308 308 308 307 307 305 303
283 285 286 288 289 290 292 294 296 298 300 301 303 304 305 306 307 308 309 310 311 311 311 312 312 312 312 312 312 311 311 310 310 310 309 308 307 305
283 284 285 287 289 290 292 294 296 298 300 301 302 304 305 306 308 309 310 310 311 311 312 313 313 313 313 313 313 313 312 312 312 312 311 310 309 307
283 284 285 287 288 290 292 294 296 298 300 301 303 304 306 307 308 309 310 311 312 312 313 313 314 314 315 315 315 314 314 314 314 313 313 312 311 309
282 283 285 286 289 290 292 294 296 298 299 301 303 305 307 308 308 309 310 312 313 313 313 314 315 315 316 316 316 315 315 315 315 315 314 314 312 311
283 284 286 287 288 290 293 295 296 298 300 302 305 306 308 308 309 310 311 312 313 313 314 314 315 316 317 317 317 316 317 317 317 317 316 315 314 313
283 285 286 287 288 291 293 295 297 299 302 303 305 307 308 309 309 311 312 313 313 314 314 315 316 317 318 319 318 318 318 319 319 319 318 317 316 315
283 284 285 287 289 292 294 297 298 301 303 305 306 307 308 309 310 311 312 313 313 314 315 316 317 319 319 320 320 320 321 321 322 322 321 319 319 317
283 284 286 288 290 293 295 297 299 302 304 306 307 308 309 309 309 310 311 312 314 315 317 318 319 320 321 322 322 322 323 324 325 325 324 323 322 321
283 285 287 289 292 294 296 298 300 303 305 306 307 308 309 309 309 310 311 313 314 316 317 319 320 321 322 323 323 323 324 326 327 327 327 326 325 325
284 286 289 291 293 295 297 299 302 304 306 307 308 308 308 309 310 310 311 313 315 316 318 319 321 322 322 322 323 325 326 327 328 328 328 327 327 326
285 287 290 292 294 296 299 301 303 305 306 308 309 308 308 309 310 311 311 313 315 316 317 319 320 322 322 323 324 326 327 329 329 328 328 329 328 328
286 288 291 293 295 297 300 302 304 306 307 308 309 309 309 309 310 311 312 313 315 316 317 318 320 321 322 324 325 326 327 329 329 329 329 331 332 332
287 289 291 294 296 298 301 303 305 307 308 309 309 309 309 309 310 310 312 313 315 317 318 319 320 321 322 324 325 326 327 329 330 331 331 333 336 338
287 290 292 295 297 300 302 305 306 308 309 310 310 310 309 309 310 310 312 313 315 317 318 319 321 321 322 324 325 326 327 328 330 332 333 336 340 344
289 291 294 296 299 301 303 305 307 308 309 310 311 311 310 310 310 311 312 313 315 316 318 319 320 320 321 323 325 326 327 328 330 333 335 339 344 349
291 293 295 298 300 302 304 306 308 308 309 310 311 311 311 311 311 311 312 313 314 315 317 318 319 319 321 323 324 326 327 329 331 334 337 341 347 353
Height
5746 5743 5740 5737 5734 5731 5727 5723 5720 5716 5712 5707 5702 5697 5692 5686 5681 5676 5670 5664 5658 5652 5645 5639 5632 5626 5619 5612 5605 5599 5592 5585 5578 5571 5564 5557 5550 5542
5737 5734 5732 5729 5726 5722 5719 5715 5711 5707 5703 5699 5693 5688 5683 5677 5671 5665 5659 5653 5647 5640 5633 5626 5619 5612 5605 5598 5591 5583 5576 5568 5561 5554 5547 5539 5531 5523
5728 5726 5723 5720 5717 5713 5710 5706 5702 5697 5694 5689 5684 5679 5673 5667 5661 5655 5648 5641 5635 5627 5620 5613 5606 5598 5591 5583 5576 5568 5560 5552 5545 5537 5529 5521 5512 5504
5719 5716 5714 5711 5708 5704 5701 5697 5693 5688 5684 5680 5674 5669 5663 5657 5650 5644 5637 5629 5622 5615 5607 5599 5592 5584 5576 5568 5560 5551 5544 5536 5528 5520 5511 5503 5494 5485
5710 5707 5704 5701 5698 5695 5691 5688 5683 5679 5674 5669 5664 5659 5652 5646 5639 5632 5625 5617 5609 5602 5594 5586 5577 5569 5560 5552 5543 5535 5527 5519 5511 5502 5493 5484 5475 5467
5700 5698 5695 5692 5689 5685 5682 5678 5674 5669 5664 5659 5654 5648 5642 5635 5628 5620 5613 5605 5597 5589 5580 5571 5562 5553 5545 5536 5527 5519 5510 5502 5493 5484 5475 5466 5458 5450
5690 5688 5685 5682 5679 5676 5672 5668 5664 5660 5655 5649 5644 5637 5631 5623 5616 5608 5601 5593 5585 5576 5567 5557 5548 5540 5530 5521 5512 5503 5494 5485 5476 5467 5458 5449 5441 5433
5681 5678 5675 5673 5669 5666 5663 5659 5654 5650 5644 5639 5633 5626 5619 5612 5605 5597 5589 5581 5573 5565 5555 5545 5535 5526 5516 5507 5497 5488 5479 5470 5461 5452 5443 5434 5425 5417
5671 5668 5666 5663 5660 5656 5653 5649 5644 5639 5634 5629 5622 5615 5608 5601 5594 5586 5577 5568 5560 5550 5541 5533 5522 5512 5503 5493 5484 5474 5465 5456 5446 5437 5428 5420 5411 5404
5661 5659 5656 5653 5650 5646 5643 5639 5634 5629 5624 5618 5612 5605 5597 5589 5582 5574 5565 5557 5548 5538 5528 5520 5510 5500 5490 5480 5470 5461 5451 5442 5433 5424 5416 5408 5400 5393
5651 5649 5646 5643 5640 5637 5633 5629 5624 5619 5613 5607 5600 5593 5586 5578 5570 5562 5553 5545 5536 5526 5516 5507 5498 5489 5479 5468 5458 5449 5439 5430 5421 5412 5404 5397 5390 5384
5641 5639 5636 5633 5630 5626 5622 5618 5614 5609 5603 5596 5590 5582 5575 5567 5558 5550 5541 5532 5523 5515 5505 5495 5486 5476 5469 5459 5448 5438 5428 5419 5410 5402 5395 5387 5381 5376
5631 5629 5626 5623 5620 5616 5612 5608 5603 5598 5592 5586 5579 5572 5564 5556 5548 5539 5530 5520 5511 5502 5493 5484 5474 5464 5455 5448 5438 5427 5418 5409 5401 5393 5386 5380 5374 5369
5621 5619 5616 5613 5609 5606 5602 5597 5593 5587 5581 5575 5568 5561 5553 5545 5536 5528 5519 5509 5500 5490 5481 5472 5463 5454 5445 5436 5428 5418 5409 5401 5393 5386 5379 5373 5368 5363
5611 5608 5605 5602 5599 5595 5592 5587 5582 5576 5570 5564 5557 5550 5542 5534 5525 5516 5507 5498 5489 5480 5470 5461 5453 5444 5435 5427 5419 5410 5402 5394 5387 5380 5374 5368 5363 5359
5601 5598 5595 5592 5589 5585 5581 5576 5571 5565 5559 5553 5546 5538 5530 5522 5514 5505 5496 5488 5479 5470 5461 5452 5444 5435 5427 5418 5411 5403 5395 5388 5382 5375 5369 5364 5360 5355
5590 5588 5585 5582 5579 5575 5570 5566 5560 5554 5548 5541 5534 5526 5518 5510 5502 5493 5485 5477 5469 5461 5452 5444 5435 5427 5419 5411 5404 5397 5390 5383 5377 5371 5366 5361 5357 5352
5580 5578 5575 5572 5568 5564 5560 5555 5549 5543 5537 5529 5522 5514 5506 5498 5490 5482 5475 5467 5459 5452 5444 5435 5427 5419 5412 5405 5398 5391 5385 5379 5373 5368 5363 5359 5354 5350
5570 5568 5565 5562 5558 5554 5549 5544 5538 5532 5525 5518 5510 5502 5494 5486 5479 5472 5465 5457 5450 5443 5435 5427 5420 5412 5406 5400 5393 5387 5381 5376 5370 5365 5360 5356 5352 5348
5560 5558 5554 5551 5547 5543 5538 5532 5526 5520 5513 5506 5498 5490 5483 5476 5468 5461 5455 5448 5441 5434 5427 5419 5413 5406 5400 5394 5389 5383 5377 5372 5367 5363 5358 5354 5351 5347
5550 5547 5544 5540 5536 5532 5527 5521 5515 5508 5501 5494 5487 5480 5472 5465 5458 5452 5445 5439 5432 5426 5419 5413 5406 5400 5395 5389 5384 5379 5374 5369 5365 5360 5356 5353 5350 5347
5539 5537 5533 5529 5525 5520 5515 5510 5503 5497 5490 5483 5476 5469 5462 5455 5449 5442 5436 5430 5424 5418 5412 5407 5401 5395 5390 5385 5380 5376 5371 5367 5362 5358 5355 5352 5349 5346
5529 5526 5522 5518 5514 5509 5504 5498 5492 5486 5479 5473 5466 5459 5453 5446 5440 5434 5428 5423 5417 5412 5406 5400 5395 5390 5385 5381 5376 5372 5368 5364 5361 5357 5354 5351 5349 5347